Natchitoches, LA

1:31 AM CST on November 17, 2019 (GMT -0600)
Natchitoches Regional

Weather History for KIER - September, 2019

Change the Weather History Date:

Monday, September 16, 2019

  Actual Average Record
Temperature  
Mean Temperature 84 °F -  
Max Temperature 98 °F 87 °F 104 °F (1980)
Min Temperature 70 °F 66 °F 51 °F (1961)
Cooling Degree Days 18    
Growing Degree Days 34 (Base 50)    
Moisture  
Dew Point 70 °F    
Average Humidity 71    
Maximum Humidity 99    
Minimum Humidity 35    
Precipitation  
Precipitation 0.00 in - - ()
Sea Level Pressure  
Sea Level Pressure 30.01 in    
Wind  
Wind Speed 3 mph (ESE)    
Max Wind Speed 12 mph    
Max Gust Speed 17 mph    
Visibility 10 miles    
Events      
Averages and records for this station are not official NWS values.
T = Trace of Precipitation, MM = Missing Value Source: NWS Daily Summary

Daily Weather History Graph

Daily Weather History Graph

Search for Another Location

Airport or City:

Astronomy

Sep. 16, 2019 Rise Set
Actual Time 6:56 AM CDT 7:17 PM CDT
Civil Twilight 6:32 AM CDT 7:41 PM CDT
Nautical Twilight 6:03 AM CDT 8:10 PM CDT
Astronomical Twilight 5:34 AM CDT 8:38 PM CDT
Moon 8:59 PM CDT (9/16) 8:58 AM CDT (9/16)
Length of Visible Light 13h 09m
Length of Day
12h 20m
Waning Gibbous, 94% of the Moon is Illuminated
Sep 16
Waning Gibbous
Sep 21
Last Quarter
Sep 28
New
Oct 5
First Quarter
Oct 13
Full

Hourly Weather History & Observations

Time (CDT) Temp. Heat Index Dew Point Humidity Pressure Visibility Wind Dir Wind Speed Gust Speed Precip Events Conditions
12:35 AM 73.4 °F - 70.9 °F 92% 30.02 in 10.0 mi Calm Calm - N/A   Clear
12:55 AM 73.4 °F - 70.9 °F 92% 30.03 in 10.0 mi Calm Calm - N/A   Clear
1:15 AM 73.4 °F - 70.7 °F 91% 30.02 in 10.0 mi Calm Calm - N/A   Clear
1:35 AM 72.5 °F - 70.7 °F 94% 30.03 in 10.0 mi Calm Calm - N/A   Clear
2:15 AM 72.3 °F - 70.7 °F 95% 30.03 in 10.0 mi NW 3.5 mph - N/A   Clear
2:35 AM 72.5 °F - 70.5 °F 93% 30.02 in 10.0 mi Calm Calm - N/A   Clear
2:55 AM 72.1 °F - 70.7 °F 95% 30.02 in 10.0 mi Calm Calm - N/A   Clear
3:15 AM 71.6 °F - 70.3 °F 96% 30.02 in 10.0 mi Calm Calm - N/A   Clear
3:55 AM 71.1 °F - 70.3 °F 98% 30.02 in 10.0 mi Calm Calm - N/A   Clear
4:15 AM 70.7 °F - 70.2 °F 98% 30.02 in 10.0 mi Calm Calm - N/A   Clear
4:35 AM 70.7 °F - 70.0 °F 98% 30.02 in 10.0 mi Calm Calm - N/A   Clear
4:55 AM 70.7 °F - 70.0 °F 98% 30.02 in 7.0 mi Calm Calm - N/A   Clear
5:15 AM 70.2 °F - 69.8 °F 99% 30.03 in 7.0 mi Calm Calm - N/A   Clear
5:35 AM 70.3 °F - 70.0 °F 99% 30.03 in 7.0 mi Calm Calm - N/A   Clear
5:55 AM 70.7 °F - 70.2 °F 98% 30.03 in 10.0 mi Calm Calm - N/A   Clear
6:15 AM 70.2 °F - 69.8 °F 99% 30.04 in 7.0 mi Calm Calm - N/A   Clear
6:55 AM 70.0 °F - 69.3 °F 98% 30.04 in 7.0 mi Calm Calm - N/A   Clear
7:15 AM 70.2 °F - 69.6 °F 98% 30.04 in 7.0 mi Calm Calm - N/A   Clear
7:35 AM 71.4 °F - 70.2 °F 96% 30.05 in 7.0 mi Calm Calm - N/A   Clear
7:55 AM 73.4 °F - 71.8 °F 95% 30.06 in 5.0 mi Calm Calm - N/A   Clear
8:15 AM 77.4 °F - 72.0 °F 83% 30.06 in 10.0 mi Calm Calm - N/A   Clear
8:35 AM 80.6 °F 84.6 °F 71.8 °F 74% 30.06 in 10.0 mi ENE 3.5 mph - N/A   Clear
8:55 AM 83.3 °F 88.4 °F 72.0 °F 68% 30.06 in 10.0 mi ENE 3.5 mph - N/A   Clear
9:15 AM 84.9 °F 90.7 °F 72.1 °F 65% 30.06 in 10.0 mi NE 3.5 mph - N/A   Clear
9:35 AM 86.0 °F 92.2 °F 72.1 °F 63% 30.06 in 10.0 mi ENE 4.6 mph - N/A   Clear
9:55 AM 87.3 °F 94.5 °F 72.7 °F 62% 30.06 in 10.0 mi NE 4.6 mph - N/A   Clear
10:15 AM 88.3 °F 95.9 °F 72.7 °F 60% 30.06 in 10.0 mi ENE 5.8 mph - N/A   Clear
10:35 AM 89.8 °F 96.5 °F 71.8 °F 55% 30.06 in 10.0 mi East 10.4 mph - N/A   Clear
10:55 AM 91.4 °F 97.8 °F 70.9 °F 51% 30.05 in 10.0 mi East 11.5 mph - N/A   Clear
11:15 AM 92.3 °F 98.1 °F 69.8 °F 48% 30.05 in 10.0 mi East 9.2 mph - N/A   Clear
11:35 AM 92.3 °F 97.6 °F 69.3 °F 47% 30.05 in 10.0 mi ENE 10.4 mph 17.3 mph N/A   Scattered Clouds
12:35 PM 94.6 °F 99.4 °F 68.4 °F 42% 30.03 in 10.0 mi East 10.4 mph - N/A   Mostly Cloudy
12:55 PM 94.6 °F 98.3 °F 66.7 °F 40% 30.03 in 10.0 mi East 8.1 mph - N/A   Scattered Clouds
1:15 PM 93.4 °F 97.0 °F 67.5 °F 42% 30.02 in 10.0 mi ENE 5.8 mph 9.2 mph N/A   Scattered Clouds
1:35 PM 94.5 °F 99.1 °F 67.8 °F 42% 30.01 in 10.0 mi ESE 8.1 mph - N/A   Clear
1:55 PM 93.2 °F 97.2 °F 67.6 °F 43% 30.00 in 10.0 mi East 8.1 mph - N/A   Scattered Clouds
2:15 PM 93.2 °F 96.2 °F 66.4 °F 41% 29.99 in 10.0 mi East 10.4 mph - N/A   Scattered Clouds
2:35 PM 96.1 °F 101.0 °F 68.4 °F 40% 29.98 in 10.0 mi NE 8.1 mph - N/A   Scattered Clouds
2:55 PM 95.4 °F 99.7 °F 67.3 °F 40% 29.97 in 10.0 mi East 11.5 mph - N/A   Scattered Clouds
3:15 PM 97.5 °F 102.6 °F 68.0 °F 38% 29.96 in 10.0 mi East 11.5 mph - N/A   Scattered Clouds
3:35 PM 96.6 °F 100.3 °F 66.0 °F 37% 29.96 in 10.0 mi East 10.4 mph - N/A   Clear
3:55 PM 97.7 °F 101.7 °F 66.7 °F 36% 29.95 in 10.0 mi East 10.4 mph 17.3 mph N/A   Scattered Clouds
4:15 PM 95.0 °F 98.5 °F 66.6 °F 39% 29.95 in 10.0 mi East 10.4 mph 17.3 mph N/A   Mostly Cloudy
4:55 PM 97.2 °F 100.7 °F 66.2 °F 36% 29.94 in 10.0 mi East 6.9 mph 11.5 mph N/A   Clear
5:35 PM 97.2 °F 100.2 °F 65.5 °F 35% 29.94 in 10.0 mi ESE 8.1 mph - N/A   Scattered Clouds
5:55 PM 96.1 °F 99.3 °F 65.7 °F 37% 29.94 in 10.0 mi ESE 8.1 mph - N/A   Scattered Clouds
6:15 PM 91.0 °F 96.6 °F 70.2 °F 50% 29.94 in 10.0 mi South 9.2 mph - N/A   Scattered Clouds
6:35 PM 88.5 °F 93.1 °F 69.4 °F 53% 29.95 in 10.0 mi South 10.4 mph - N/A   Clear
6:55 PM 86.5 °F 90.7 °F 69.1 °F 56% 29.95 in 10.0 mi South 8.1 mph - N/A   Clear
7:15 PM 84.7 °F 88.8 °F 69.4 °F 60% 29.96 in 10.0 mi South 6.9 mph - N/A   Clear
7:35 PM 82.8 °F 86.7 °F 69.8 °F 65% 29.96 in 10.0 mi SSE 5.8 mph - N/A   Clear
7:55 PM 81.5 °F 84.9 °F 69.8 °F 67% 29.96 in 10.0 mi South 5.8 mph - N/A   Clear
8:15 PM 80.6 °F 83.9 °F 70.2 °F 70% 29.97 in 10.0 mi SSE 5.8 mph - N/A   Clear
8:35 PM 79.7 °F - 70.5 °F 73% 29.97 in 10.0 mi South 4.6 mph - N/A   Clear
8:55 PM 78.8 °F - 70.3 °F 75% 29.98 in 10.0 mi SSE 3.5 mph - N/A   Clear
9:15 PM 77.7 °F - 70.2 °F 77% 29.98 in 10.0 mi South 3.5 mph - N/A   Clear
9:35 PM 76.1 °F - 70.9 °F 84% 29.98 in 10.0 mi Calm Calm - N/A   Clear
9:55 PM 75.4 °F - 70.9 °F 86% 29.99 in 10.0 mi Calm Calm - N/A   Clear
10:15 PM 75.6 °F - 70.7 °F 85% 29.99 in 10.0 mi Calm Calm - N/A   Clear
10:35 PM 74.8 °F - 71.1 °F 88% 29.99 in 10.0 mi Calm Calm - N/A   Clear
10:55 PM 73.6 °F - 71.1 °F 92% 29.99 in 10.0 mi Calm Calm - N/A   Clear
11:15 PM 73.4 °F - 71.2 °F 93% 29.99 in 10.0 mi Calm Calm - N/A   Clear
11:35 PM 72.7 °F - 70.7 °F 93% 29.99 in 10.0 mi Calm Calm - N/A   Clear
11:55 PM 73.4 °F - 71.2 °F 93% 29.99 in 10.0 mi Calm Calm - N/A   Clear